Flag for Madagascar Weather past 2 weeks in Toamasina, Madagascar

Now
73 °F

Light rain. Partly cloudy.


Feels Like: 72 °F
Forecast: 68 / 74 °F
Wind: 9 mph from Southeast

Location: Tamatave

Current Time: Jul 24, 2014 at 8:45:07 PM

Latest Report: Jul 24, 2014 at 8:00 PM


Visibility: 4 mi

Pressure: 30.15 "Hg

Humidity: 89%

Dew point: 70 °F

Location of ToamasinaLocation

Historic Weather in Toamasina — Graph

°F

Toamasina temperature yesterday

Maximum temperature yesterday: 77 °F (at 12:00 PM)
Minimum temperature yesterday: 66 °F (at 2:00 AM)
Average temperature yesterday: 69 °F

Past Weeks' High & Low Weather Summary

 TemperatureHumidityPressure
High79 °F (Jul 12, 2:00 PM)100% (Jul 10, 2:00 AM)30.30 "Hg (Jul 10, 2:00 AM)
Low63 °F (Jul 12, 3:00 AM)48% (Jul 12, 2:00 PM)30.01 "Hg (Jul 9, 7:00 PM)
Average70 °F88%30.16 "Hg
* Reported Jul 9 7:00 PM — Jul 24 7:00 PM, Toamasina, Weather by CustomWeather, © 2014

Note: Actual official high and low records may vary slightly from our data, if they occured in-between our weather recording intervals... More about our weather records

Advertising

Toamasina weather history for previous 24 hours

 ConditionsComfort  
Time TempWeatherWind HumidityBarometerVisibility
7:00 PM
Jul 24
72 °FLight rain. Partly cloudy.7 mph94%30.12 "Hg4 mi
6:00 PM73 °FLight rain. Partly cloudy.12 mph94%30.12 "Hg2 mi
5:00 PM72 °FLight rain. Broken clouds.9 mph94%30.12 "Hg5 mi
4:00 PM72 °FRain. Broken clouds.12 mph94%30.12 "Hg1 mi
3:00 PM75 °FScattered showers. Broken clouds.12 mph83%30.09 "HgN/A
2:00 PM75 °FScattered showers. Broken clouds.9 mph89%30.09 "Hg6 mi
1:00 PM72 °FLight rain. Broken clouds.7 mph94%30.12 "Hg3 mi
12:00 PM72 °FRain. Broken clouds.5 mph94%30.15 "Hg1 mi
11:00 AM70 °FRain. Broken clouds.5 mph94%30.15 "Hg1 mi
10:00 AM70 °FLight rain. Broken clouds.5 mph94%30.18 "Hg1 mi
9:00 AM70 °FLight rain. Broken clouds.7 mph94%30.18 "Hg2 mi
8:00 AM68 °FDrizzle. Broken clouds.5 mph100%30.15 "Hg2 mi
7:00 AM68 °FLight rain. Broken clouds.5 mph94%30.15 "Hg4 mi
6:00 AM68 °FLight rain. Partly cloudy.5 mph94%30.12 "Hg4 mi
5:00 AM68 °FScattered showers. Partly cloudy.7 mph94%30.12 "HgN/A
4:00 AM68 °FLight rain. Partly cloudy.7 mph94%30.09 "Hg4 mi
3:00 AM68 °FLight rain. Partly cloudy.9 mph94%30.12 "Hg4 mi
2:00 AM68 °FLight rain. Partly cloudy.5 mph94%30.12 "Hg4 mi
1:00 AM68 °FLight rain. Partly cloudy.7 mph94%30.12 "Hg3 mi
12:00 AM68 °FLight rain. Partly cloudy.5 mph94%30.15 "Hg4 mi
11:00 PM
Jul 23
68 °FLight rain. Partly cloudy.2 mph94%30.15 "Hg4 mi
10:00 PM68 °FLight rain. Partly cloudy.5 mph94%30.15 "Hg4 mi
9:00 PM68 °FScattered showers. Partly cloudy.7 mph94%30.15 "HgN/A
8:00 PM68 °FScattered showers. Partly cloudy.7 mph94%30.15 "HgN/A
Weather by CustomWeather, © 2014

See weather overviewHow to use our weather pages